Weather History for EGLL - December, 2013

Change the Weather History Date:

Friday, December 20, 2013

  Actual Average Record
Temperature  
Mean Temperature 44 °F -  
Max Temperature 52 °F 45 °F 55 °F (2003)
Min Temperature 35 °F 35 °F 15 °F (2010)
Degree Days  
Heating Degree Days 22    
Moisture  
Dew Point 39 °F    
Average Humidity 82    
Maximum Humidity 100    
Minimum Humidity 61    
Precipitation  
Precipitation 0.00 in - - ()
Sea Level Pressure  
Sea Level Pressure 30.08 in    
Wind  
Wind Speed 11 mph ()    
Max Wind Speed 26 mph    
Max Gust Speed 37 mph    
Visibility 10.7 miles    
Events Rain    
Averages and records for this station are not official NWS values.
T = Trace of Precipitation, MM = Missing Value Source: Averaged Metar Reports

Daily Weather History Graph

Daily Weather History Graph

Search for Another Location

Airport or City:

Trip Planner

Search our weather history database for the weather conditions in past years. The results will help you decide how hot, cold, wet, or windy it might be!

Date:

Astronomy

Dec. 20, 2013 Rise Set
Actual Time 8:04 AM GMT 3:54 PM GMT
Civil Twilight 7:24 AM GMT 4:34 PM GMT
Nautical Twilight 6:41 AM GMT 5:18 PM GMT
Astronomical Twilight 6:00 AM GMT 5:58 PM GMT
Moon 7:21 PM GMT (12/20) 9:32 AM GMT (12/20)
Length of Visible Light 9h 10m
Length of Day
7h 50m
Waning Gibbous, 92% of the Moon is Illuminated
Dec 20
Waning Gibbous
Dec 25
Last Quarter
Jan 1
New
Jan 8
First Quarter
Jan 16
Full

Hourly Weather History & Observations

Time (GMT) Temp. Windchill Dew Point Humidity Pressure Visibility Wind Dir Wind Speed Gust Speed Precip Events Conditions
12:00 AM 38 °F - 35 °F 86% 29.88 in 19 mi SSW 6.9 mph - -  
12:20 AM 35.6 °F 29.2 °F 35.6 °F 100% 29.89 in - SW 8.1 mph - N/A   Clear
12:50 AM 37.4 °F 30.8 °F 35.6 °F 93% 29.89 in - SW 9.2 mph - N/A   Clear
1:00 AM 37 °F - 35 °F 88% 29.90 in 22 mi SSW 10.4 mph - -  
1:20 AM 35.6 °F 29.2 °F 35.6 °F 100% 29.89 in 6.2 mi SW 8.1 mph - N/A   Unknown
1:50 AM 37.4 °F 30.3 °F 35.6 °F 93% 29.92 in 6.2 mi SW 10.4 mph - N/A   Unknown
2:00 AM 37 °F - 34 °F 85% 29.93 in 19 mi SSW 10.4 mph - -  
2:20 AM 35.6 °F 29.2 °F 35.6 °F 100% 29.95 in 6.2 mi SSW 8.1 mph - N/A   Unknown
2:50 AM 35.6 °F 29.9 °F 35.6 °F 100% 29.95 in - SSW 6.9 mph - N/A   Clear
3:00 AM 36 °F - 34 °F 88% 29.96 in 28 mi SW 8.1 mph - -  
3:20 AM 37.4 °F 32.1 °F 35.6 °F 93% 29.95 in - SSW 6.9 mph - N/A   Clear
3:50 AM 35.6 °F 29.2 °F 33.8 °F 93% 29.98 in - SW 8.1 mph - N/A   Clear
4:00 AM 36 °F - 33 °F 87% 29.98 in 25 mi SW 8.1 mph - -  
4:20 AM 37.4 °F 29.8 °F 35.6 °F 93% 29.98 in - SW 11.5 mph - N/A   Clear
4:50 AM 37.4 °F 30.8 °F 35.6 °F 93% 30.01 in - SW 9.2 mph - N/A   Clear
5:00 AM 37 °F - 34 °F 83% 30.01 in 28 mi SW 8.1 mph - -  
5:20 AM 37.4 °F 30.8 °F 35.6 °F 93% 30.01 in - SSW 9.2 mph - N/A   Clear
5:50 AM 37.4 °F 32.1 °F 35.6 °F 93% 30.04 in - SSW 6.9 mph - N/A   Clear
6:00 AM 38 °F - 34 °F 81% 30.05 in 19 mi SW 6.9 mph - -  
6:20 AM 37.4 °F 29.8 °F 35.6 °F 93% 30.04 in - SW 11.5 mph - N/A   Clear
6:50 AM 37.4 °F 29.8 °F 35.6 °F 93% 30.06 in - WSW 11.5 mph - N/A   Clear
7:00 AM 38 °F - 34 °F 81% 30.06 in 22 mi SW 12.7 mph - -  
7:20 AM 37.4 °F 28.9 °F 35.6 °F 93% 30.06 in - WSW 13.8 mph - N/A   Clear
7:50 AM 37.4 °F 29.8 °F 35.6 °F 93% 30.09 in - SW 11.5 mph - N/A   Clear
8:00 AM 38 °F - 34 °F 80% 30.10 in 19 mi SW 10.4 mph - -  
8:20 AM 39.2 °F 34.2 °F 35.6 °F 87% 30.09 in - SSW 6.9 mph - N/A   Clear
8:50 AM 39.2 °F 34.2 °F 37.4 °F 93% 30.12 in - SSW 6.9 mph - N/A   Clear
9:00 AM 40 °F - 35 °F 76% 30.13 in 19 mi SW 8.1 mph - -  
9:20 AM 41.0 °F 35.8 °F 37.4 °F 87% 30.12 in - SSW 8.1 mph - N/A   Clear
9:50 AM 41.0 °F 34.7 °F 37.4 °F 87% 30.15 in - WSW 10.4 mph - N/A   Clear
10:00 AM 42 °F - 37 °F 75% 30.16 in 14 mi SW 10.4 mph - -  
10:20 AM 42.8 °F 37.0 °F 39.2 °F 87% 30.15 in - WSW 10.4 mph - N/A   Clear
10:50 AM 44.6 °F 39.2 °F 39.2 °F 81% 30.18 in - SW 10.4 mph - N/A   Clear
11:00 AM 46 °F - 38 °F 67% 30.18 in 18 mi SW 11.5 mph - -  
11:20 AM 46.4 °F 40.4 °F 41.0 °F 81% 30.18 in - WSW 13.8 mph - N/A   Clear
11:50 AM 48.2 °F - 41.0 °F 76% 30.18 in - SW 13.8 mph - N/A   Clear
12:00 PM 47 °F - 39 °F 64% 30.18 in 22 mi SW 13.8 mph - -   Scattered Clouds
12:20 PM 48.2 °F - 41.0 °F 76% 30.15 in - SW 13.8 mph - N/A   Clear
12:50 PM 48.2 °F - 41.0 °F 76% 30.18 in - SW 13.8 mph - N/A   Clear
1:00 PM 49 °F - 40 °F 61% 30.19 in 19 mi SW 15.0 mph - -  
1:20 PM 48.2 °F - 41.0 °F 76% 30.18 in - SW 15.0 mph - N/A   Clear
1:50 PM 50.0 °F - 41.0 °F 71% 30.18 in - SW 15.0 mph - N/A   Clear
2:20 PM 50.0 °F - 41.0 °F 71% 30.15 in 6.2 mi SSW 13.8 mph - N/A   Partly Cloudy
2:50 PM 48.2 °F - 41.0 °F 76% 30.15 in 6.2 mi SSW 11.5 mph - N/A   Partly Cloudy
3:00 PM 49 °F - 40 °F 61% 30.17 in 17 mi SSW 13.8 mph - -  
3:20 PM 48.2 °F - 41.0 °F 76% 30.15 in - SSW 12.7 mph - N/A   Clear
3:50 PM 48.2 °F - 41.0 °F 76% 30.15 in - SSW 12.7 mph - N/A   Clear
4:00 PM 48 °F - 40 °F 66% 30.17 in 14 mi South 11.5 mph - -   Scattered Clouds
4:20 PM 48.2 °F - 42.8 °F 82% 30.15 in - SSW 15.0 mph - N/A   Clear
4:50 PM 48.2 °F - 42.8 °F 82% 30.15 in 6.2 mi SSW 15.0 mph - N/A   Partly Cloudy
5:00 PM 49 °F - 41 °F 67% 30.16 in 16 mi SSW 17.3 mph - -   Partly Cloudy
5:20 PM 50.0 °F - 42.8 °F 76% 30.15 in 6.2 mi SSW 17.3 mph - N/A   Mostly Cloudy
5:50 PM 50.0 °F - 42.8 °F 76% 30.12 in 6.2 mi SSW 19.6 mph - N/A   Mostly Cloudy
6:00 PM 50 °F - 42 °F 67% 30.15 in 14 mi SSW 18.4 mph - -   Scattered Clouds
6:20 PM 48.2 °F - 44.6 °F 87% 30.12 in 6.2 mi SSW 18.4 mph - N/A Rain Light Rain
6:50 PM 50.0 °F - 44.6 °F 82% 30.12 in 6.2 mi SSW 18.4 mph - N/A   Scattered Clouds
7:00 PM 50 °F - 42 °F 67% 30.13 in 16 mi SSW 21.9 mph - - Rain Rain
7:20 PM 50.0 °F - 42.8 °F 76% 30.12 in 6.2 mi SSW 17.3 mph - N/A   Scattered Clouds
7:50 PM 50.0 °F - 44.6 °F 82% 30.12 in 6.2 mi SSW 21.9 mph - N/A   Mostly Cloudy
8:00 PM 49 °F - 44 °F 79% 30.12 in 7 mi SSW 20.7 mph - - Rain Light Rain Showers
8:20 PM 50.0 °F - 46.4 °F 87% 30.09 in 5.6 mi SSW 19.6 mph - N/A Rain Light Rain
8:50 PM 50.0 °F - 44.6 °F 82% 30.09 in 6.2 mi SW 19.6 mph - N/A   Scattered Clouds
9:00 PM 51 °F - 44 °F 70% 30.11 in 15 mi SSW 24.2 mph - - Rain Rain
9:20 PM 50.0 °F - 44.6 °F 82% 30.09 in 6.2 mi SSW 20.7 mph - N/A   Scattered Clouds
9:50 PM 50.0 °F - 44.6 °F 82% 30.09 in 6.2 mi SW 18.4 mph 31.1 mph N/A   Mostly Cloudy
10:00 PM 52 °F - 44 °F 65% 30.09 in 13 mi SSW 23.0 mph - - Rain Rain
10:20 PM 51.8 °F - 44.6 °F 76% 30.06 in 6.2 mi SSW 19.6 mph - N/A   Mostly Cloudy
10:50 PM 51.8 °F - 44.6 °F 76% 30.06 in 6.2 mi SSW 21.9 mph - N/A   Mostly Cloudy
11:00 PM 52 °F - 43 °F 64% 30.06 in 14 mi SSW 26.5 mph - - Rain Rain
11:20 PM 51.8 °F - 44.6 °F 76% 30.06 in 6.2 mi SSW 20.7 mph 36.8 mph N/A   Mostly Cloudy
11:50 PM 51.8 °F - 46.4 °F 82% 30.04 in 6.2 mi SW 21.9 mph 33.4 mph N/A   Mostly Cloudy